DW8320 Weather Reports


time (UTC)temp
F
wind
direction
speed
knots
gust
knots
rain 1hr
in
rain 24hr
in
rain mn
in
humidity
%
barometer
mb
20260509024536 55 139 0.0 0.9 0.00 0.00 0.00 80 1010.5
20260509024028 55 115 0.0 0.9 0.00 0.00 0.00 81 1010.5
20260509023508 55 146 0.0 1.7 0.00 0.00 0.00 81 1010.5
20260509023100 55 146 0.0 1.7 0.00 0.00 0.00 81 1010.5
20260509022542 55 316 0.0 1.7 0.00 0.00 0.00 82 1010.5
20260509022028 55 43 0.0 0.0 0.00 0.00 0.00 81 1010.4
20260509021516 55 5 0.0 0.0 0.00 0.00 0.00 81 1010.2
20260509021102 55 5 0.0 0.0 0.00 0.00 0.00 81 1010.0
20260509020549 55 5 0.0 0.0 0.00 0.00 0.00 81 1009.9
20260509020036 55 5 0.0 0.0 0.00 0.00 0.00 81 1009.8
20260509015502 55 6 0.0 0.0 0.00 0.00 0.00 80 1009.7
20260509015046 55 6 0.0 0.0 0.00 0.00 0.00 80 1009.7
20260509014538 56 6 0.0 0.0 0.00 0.00 0.00 79 1009.6
20260509014026 56 6 0.0 0.0 0.00 0.00 0.00 79 1009.6
20260509013512 56 6 0.0 0.0 0.00 0.00 0.00 78 1009.6
20260509013120 56 6 0.0 0.0 0.00 0.00 0.00 77 1009.6
20260509012550 57 5 0.0 1.7 0.00 0.00 0.00 77 1009.7
20260509012040 57 5 0.9 3.5 0.00 0.00 0.00 77 1009.8
20260509011525 58 65 0.0 3.5 0.00 0.00 0.00 75 1009.8
20260509011006 57 90 0.0 0.0 0.00 0.00 0.00 75 1009.9
20260509010558 57 341 0.0 0.0 0.00 0.00 0.00 74 1009.8
20260509010048 58 341 0.0 0.0 0.00 0.00 0.00 73 1009.7
20260509005514 58 341 0.0 0.0 0.00 0.00 0.00 70 1009.5
20260509005101 58 341 0.0 0.0 0.00 0.00 0.00 66 1009.6
20260509004554 58 342 0.0 0.0 0.00 0.00 0.00 64 1009.4
20260509004041 59 342 0.0 0.0 0.00 0.00 0.00 64 1009.3
20260509003530 59 342 0.0 0.0 0.00 0.00 0.00 62 1009.2
20260509003015 59 342 0.0 0.0 0.00 0.00 0.00 66 1009.2
20260509002554 59 341 0.0 0.0 0.00 0.00 0.00 66 1009.1
20260509002050 59 341 0.0 0.0 0.00 0.00 0.00 66 1009.2
20260509001538 60 341 0.0 0.0 0.00 0.00 0.00 63 1009.2
20260509001021 60 341 0.0 0.0 0.00 0.00 0.00 63 1009.3
20260509000508 60 341 0.0 0.0 0.00 0.00 0.00 61 1009.4
20260509000058 60 341 0.0 0.0 0.00 0.00 0.00 64 1009.4
20260508235534 61 342 0.0 0.0 0.00 0.00 0.00 63 1009.3
20260508235021 61 341 0.0 0.0 0.00 0.00 0.00 63 1009.3
20260508234505 61 341 0.0 0.0 0.00 0.00 0.00 60 1009.2
20260508234050 61 341 0.0 0.0 0.00 0.00 0.00 58 1009.1
20260508233540 61 342 0.0 0.0 0.00 0.00 0.00 59 1009.2
20260508233033 61 341 0.0 0.0 0.00 0.00 0.00 58 1009.0
20260508232518 62 341 0.0 0.0 0.00 0.00 0.00 57 1009.1
20260508232002 62 342 0.0 0.0 0.00 0.00 0.00 56 1009.2
20260508231553 62 341 0.0 0.0 0.00 0.00 0.00 58 1009.4
20260508231036 63 341 0.0 0.0 0.00 0.00 0.00 56 1009.3
20260508230528 63 341 0.0 0.0 0.00 0.00 0.00 53 1009.2
20260508230112 63 342 0.0 0.0 0.00 0.00 0.00 50 1009.2
20260508225546 64 342 0.0 0.0 0.00 0.00 0.00 50 1009.0
20260508225029 64 341 0.0 0.0 0.00 0.00 0.00 48 1009.0
20260508224538 65 342 0.0 0.9 0.00 0.00 0.00 46 1009.0
20260508224100 65 341 0.0 1.7 0.00 0.00 0.00 46 1009.0
20260508223555 65 343 0.0 3.5 0.00 0.00 0.00 46 1009.0
20260508223038 66 136 0.0 3.5 0.00 0.00 0.00 47 1009.0
20260508222518 66 84 0.0 1.7 0.00 0.00 0.00 44 1009.0
20260508222014 66 169 0.0 1.7 0.00 0.00 0.00 45 1009.0
20260508221607 66 156 0.0 3.5 0.00 0.00 0.00 43 1008.9
20260508221049 66 146 0.9 3.5 0.00 0.00 0.00 44 1008.9
20260508220542 66 190 0.0 0.0 0.00 0.00 0.00 45 1008.9
20260508220008 66 190 0.0 0.9 0.00 0.00 0.00 44 1009.0
20260508215558 66 191 0.0 1.7 0.00 0.00 0.00 44 1008.9
20260508215052 66 318 0.0 1.7 0.00 0.00 0.00 46 1008.8
20260508214544 66 129 0.0 0.9 0.00 0.00 0.00 41 1008.9
20260508214037 66 129 0.0 1.7 0.00 0.00 0.00 41 1008.9
20260508213524 66 153 0.0 1.7 0.00 0.00 0.00 41 1008.9
20260508213004 66 323 0.0 5.2 0.00 0.00 0.00 45 1009.0
20260508212557 67 324 0.0 5.2 0.00 0.00 0.00 43 1009.1
20260508212040 67 167 0.0 2.6 0.00 0.00 0.00 45 1009.1
20260508211532 67 167 0.0 1.7 0.00 0.00 0.00 41 1009.1
20260508211016 67 160 0.0 1.7 0.00 0.00 0.00 45 1009.2
20260508210553 67 291 0.0 1.7 0.00 0.00 0.00 46 1009.2
20260508210042 67 152 0.0 1.7 0.00 0.00 0.00 41 1009.3
20260508205513 67 146 0.0 0.9 0.00 0.00 0.00 43 1009.4
20260508205056 67 15 0.0 0.9 0.00 0.00 0.00 46 1009.5
20260508204548 67 15 0.0 1.7 0.00 0.00 0.00 48 1009.7
20260508204032 67 127 0.0 1.7 0.00 0.00 0.00 41 1009.9
20260508203514 67 245 0.0 0.9 0.00 0.00 0.00 46 1009.9
20260508203116 68 330 0.0 0.9 0.00 0.00 0.00 48 1009.9
20260508202548 68 330 0.0 1.7 0.00 0.00 0.00 48 1010.1
20260508202034 68 87 0.0 1.7 0.00 0.00 0.00 49 1010.1
20260508201532 68 209 0.0 0.9 0.00 0.00 0.00 42 1010.1
20260508201017 67 210 0.0 2.6 0.00 0.00 0.00 43 1010.2
20260508200558 68 135 0.0 2.6 0.00 0.00 0.00 40 1010.4
20260508200053 68 148 0.0 2.6 0.00 0.00 0.00 43 1010.3
20260508195516 67 256 0.0 0.9 0.00 0.00 0.00 43 1010.2
20260508195100 67 63 0.0 0.9 0.00 0.00 0.00 42 1010.4
20260508194551 67 81 0.0 2.6 0.00 0.00 0.00 43 1010.5
20260508194041 67 237 0.0 3.5 0.00 0.00 0.00 43 1010.5
20260508193532 68 134 0.0 3.5 0.00 0.00 0.00 38 1010.5
20260508193035 69 271 0.0 1.7 0.00 0.00 0.00 44 1010.6
20260508192602 69 20 0.0 1.7 0.00 0.00 0.00 42 1010.5
20260508192052 70 326 0.0 1.7 0.00 0.00 0.00 43 1010.5
20260508191543 71 316 0.0 1.7 0.00 0.00 0.00 40 1010.6
20260508191030 71 315 0.0 1.7 0.00 0.00 0.00 34 1010.7
20260508190518 72 67 0.0 3.5 0.00 0.00 0.00 35 1010.8
20260508190114 73 338 0.0 3.5 0.00 0.00 0.00 35 1010.8
20260508185542 73 330 0.0 1.7 0.00 0.00 0.00 30 1010.9
20260508185034 74 318 0.0 1.7 0.00 0.00 0.00 33 1011.0
20260508184521 73 77 0.0 1.7 0.00 0.00 0.00 35 1011.1
20260508184004 73 316 0.0 2.6 0.00 0.00 0.00 33 1011.1
20260508183552 72 354 0.0 4.3 0.00 0.00 0.00 33 1011.1
20260508183042 72 148 0.0 4.3 0.00 0.00 0.00 33 1011.2
20260508182531 71 325 0.0 4.3 0.00 0.00 0.00 33 1011.4
20260508182015 72 312 0.0 4.3 0.00 0.00 0.00 39 1011.5
20260508181600 72 311 0.9 2.6 0.00 0.00 0.00 37 1011.6
20260508181048 72 336 0.0 1.7 0.00 0.00 0.00 40 1011.7
20260508180532 72 327 0.0 1.7 0.00 0.00 0.00 37 1011.8
20260508180136 73 316 0.0 6.1 0.00 0.00 0.00 33 1011.8
20260508175546 73 84 0.9 6.1 0.00 0.00 0.00 36 1012.0
20260508175039 72 194 1.7 7.0 0.00 0.00 0.00 35 1012.0
20260508174535 72 87 0.9 4.3 0.00 0.00 0.00 42 1012.1
20260508174011 71 339 0.0 1.7 0.00 0.00 0.00 40 1012.1
20260508173559 70 320 0.0 2.6 0.00 0.00 0.00 38 1012.1
20260508173049 70 318 0.0 2.6 0.00 0.00 0.00 37 1012.3
20260508172534 71 288 0.0 7.8 0.00 0.00 0.00 41 1012.4
20260508172014 70 200 0.9 7.8 0.00 0.00 0.00 41 1012.4
20260508171628 70 134 0.0 3.5 0.00 0.00 0.00 40 1012.6
20260508171051 70 319 0.0 6.1 0.00 0.00 0.00 40 1012.7
20260508170542 70 311 0.9 6.1 0.00 0.00 0.00 41 1012.8
20260508170038 71 291 0.9 7.0 0.00 0.00 0.00 37 1012.8
20260508165515 72 143 1.7 7.0 0.00 0.00 0.00 37 1013.0
20260508165054 73 338 1.7 7.0 0.00 0.00 0.00 36 1013.1
20260508164545 73 11 0.9 3.5 0.00 0.00 0.00 36 1013.2
20260508164035 72 160 0.0 4.3 0.00 0.00 0.00 40 1013.3
20260508163516 72 205 0.0 5.2 0.00 0.00 0.00 40 1013.4
20260508163005 71 146 0.0 3.5 0.00 0.00 0.00 43 1013.6
20260508162557 71 172 0.9 3.5 0.00 0.00 0.00 41 1013.6
20260508162047 70 326 0.0 6.1 0.00 0.00 0.00 41 1013.6
20260508161539 69 138 0.0 6.1 0.00 0.00 0.00 43 1013.7
20260508161015 69 290 0.9 3.5 0.00 0.00 0.00 39 1013.7
20260508160501 70 316 0.0 3.5 0.00 0.00 0.00 39 1013.7
20260508160058 70 320 0.0 3.5 0.00 0.00 0.00 38 1013.7
20260508155521 69 316 0.0 7.8 0.00 0.00 0.00 39 1013.9
20260508155003 70 142 0.0 4.3 0.00 0.00 0.00 40 1014.0
20260508154552 69 200 0.0 4.3 0.00 0.00 0.00 41 1014.0
20260508154038 69 120 0.0 2.6 0.00 0.00 0.00 43 1014.1
20260508153526 69 181 0.0 1.7 0.00 0.00 0.00 39 1014.1
20260508153019 68 327 0.0 5.2 0.00 0.00 0.00 40 1014.2
20260508152554 68 86 0.9 6.1 0.00 0.00 0.00 39 1014.3
20260508152043 68 167 0.0 3.5 0.00 0.00 0.00 40 1014.4
20260508151541 68 312 0.0 1.7 0.00 0.00 0.00 43 1014.4
20260508151021 67 319 0.0 1.7 0.00 0.00 0.00 45 1014.5
20260508150558 67 324 0.0 1.7 0.00 0.00 0.00 40 1014.5
20260508150051 67 314 0.0 2.6 0.00 0.00 0.00 40 1014.5
20260508145527 67 117 0.0 6.1 0.00 0.00 0.00 43 1014.5
20260508145019 67 197 0.9 6.1 0.00 0.00 0.00 39 1014.5
20260508144557 67 202 0.0 3.5 0.00 0.00 0.00 42 1014.7
20260508144043 66 180 0.0 3.5 0.00 0.00 0.00 44 1014.6
20260508143535 66 72 0.0 3.5 0.00 0.00 0.00 48 1014.5
20260508143024 66 327 0.0 2.6 0.00 0.00 0.00 42 1014.6
20260508142523 66 195 0.0 2.6 0.00 0.00 0.00 44 1014.7
20260508142059 65 156 0.0 2.6 0.00 0.00 0.00 44 1014.8
20260508141551 65 195 0.0 1.7 0.00 0.00 0.00 47 1014.8
20260508141040 64 13 0.0 2.6 0.00 0.00 0.00 42 1014.9
20260508140530 64 312 0.0 1.7 0.00 0.00 0.00 41 1014.8
20260508140119 64 77 0.0 4.3 0.00 0.00 0.00 47 1014.9
20260508135549 63 347 0.0 4.3 0.00 0.00 0.00 47 1015.0
20260508135035 63 167 0.0 2.6 0.00 0.00 0.00 48 1015.0
20260508134519 62 79 0.0 1.7 0.00 0.00 0.00 47 1015.0
20260508134003 62 93 0.0 3.5 0.00 0.00 0.00 44 1015.0
20260508133555 62 325 0.0 3.5 0.00 0.00 0.00 46 1014.9
20260508133100 62 330 0.0 1.7 0.00 0.00 0.00 45 1014.9
20260508132526 62 320 0.0 1.7 0.00 0.00 0.00 45 1015.0
20260508132017 62 226 0.0 2.6 0.00 0.00 0.00 50 1014.9
20260508131602 61 307 0.0 2.6 0.00 0.00 0.00 47 1015.0
20260508131049 61 338 0.0 1.7 0.00 0.00 0.00 47 1014.9
20260508130530 60 115 0.0 1.7 0.00 0.00 0.00 48 1014.9
20260508130139 60 215 0.0 1.7 0.00 0.00 0.00 50 1014.9
20260508125545 59 36 0.0 0.9 0.00 0.00 0.00 54 1015.0
20260508125034 59 153 0.0 1.7 0.00 0.00 0.00 50 1014.9
20260508124521 58 312 0.0 0.9 0.00 0.00 0.00 51 1014.9
20260508124059 58 312 0.0 0.9 0.00 0.00 0.00 57 1014.9
20260508123547 57 167 0.0 0.9 0.00 0.00 0.00 57 1014.8
20260508123031 56 184 0.0 0.9 0.00 0.00 0.00 55 1014.7
20260508122514 55 184 0.0 0.9 0.00 0.00 0.00 64 1014.8
20260508122001 55 198 0.0 0.9 0.00 0.00 0.00 63 1014.8
20260508121559 54 197 0.0 0.9 0.00 0.00 0.00 64 1014.8
20260508121042 52 138 0.0 0.9 0.00 0.00 0.00 68 1014.8
20260508120530 51 139 0.0 0.9 0.00 0.00 0.00 70 1014.9
20260508120116 49 33 0.0 0.0 0.00 0.00 0.00 73 1014.9
20260508115549 48 32 0.0 0.0 0.00 0.01 0.00 75 1014.8
20260508115038 47 33 0.0 0.0 0.00 0.01 0.00 76 1014.8
20260508114529 46 33 0.0 0.0 0.00 0.01 0.00 76 1014.8
20260508114015 46 32 0.0 0.0 0.00 0.01 0.00 76 1014.7
20260508113517 46 33 0.0 0.0 0.00 0.01 0.00 75 1014.7
20260508113103 46 33 0.0 0.0 0.00 0.01 0.00 75 1014.7
20260508112540 46 32 0.0 0.0 0.00 0.01 0.00 73 1014.5
20260508112030 46 33 0.0 0.0 0.00 0.01 0.00 74 1014.5
20260508111517 46 32 0.0 0.0 0.00 0.01 0.00 74 1014.5
20260508111059 46 32 0.0 0.0 0.00 0.01 0.00 74 1014.4
20260508110544 46 33 0.0 0.0 0.00 0.01 0.00 73 1014.4
20260508110015 46 33 0.0 0.9 0.00 0.01 0.00 76 1014.4
20260508105601 46 32 0.0 0.9 0.00 0.01 0.00 76 1014.3
20260508105051 46 31 0.0 0.0 0.00 0.01 0.00 75 1014.3
20260508104537 46 32 0.0 0.0 0.00 0.01 0.00 76 1014.3
20260508104019 45 31 0.0 0.0 0.00 0.01 0.00 76 1014.3
20260508103505 45 31 0.0 0.0 0.00 0.01 0.00 77 1014.4
20260508103057 45 32 0.0 0.9 0.00 0.01 0.00 76 1014.4
20260508102546 45 31 0.0 0.9 0.00 0.01 0.00 76 1014.3
20260508102033 44 17 0.0 0.0 0.00 0.01 0.00 78 1014.3
20260508101515 44 17 0.0 0.0 0.00 0.01 0.00 79 1014.3
20260508101002 44 18 0.0 0.0 0.00 0.01 0.00 80 1014.4
20260508100553 44 17 0.0 0.0 0.00 0.01 0.00 80 1014.3
20260508100009 43 18 0.0 0.0 0.00 0.01 0.00 81 1014.4
20260508095501 43 18 0.0 0.0 0.00 0.01 0.00 81 1014.4
20260508095053 43 17 0.0 0.0 0.00 0.01 0.00 81 1014.4
20260508094543 43 18 0.0 0.0 0.00 0.01 0.00 81 1014.4
20260508094032 42 18 0.0 0.0 0.00 0.01 0.00 81 1014.5
20260508093516 42 18 0.0 0.0 0.00 0.01 0.00 82 1014.4
20260508093003 42 18 0.0 0.0 0.00 0.01 0.00 82 1014.4
20260508092554 41 17 0.0 0.0 0.00 0.01 0.00 82 1014.4
20260508092045 41 18 0.0 0.0 0.00 0.01 0.00 83 1014.4
20260508091559 41 18 0.0 0.0 0.00 0.01 0.00 83 1014.4
20260508091017 40 18 0.0 0.0 0.00 0.01 0.00 83 1014.5
20260508090503 40 17 0.0 0.0 0.00 0.01 0.00 83 1014.6
20260508085532 40 17 0.0 0.0 0.00 0.01 0.00 82 1014.5
20260508085020 40 18 0.0 0.0 0.00 0.01 0.00 82 1014.5
20260508084502 39 17 0.0 0.0 0.00 0.01 0.00 82 1014.4
20260508084049 39 18 0.0 0.0 0.00 0.01 0.00 82 1014.3
20260508083543 39 18 0.0 0.0 0.00 0.01 0.00 82 1014.4
20260508083033 39 18 0.0 0.0 0.00 0.01 0.00 81 1014.4
20260508082514 39 17 0.0 0.0 0.00 0.01 0.00 81 1014.4
20260508082059 39 17 0.0 0.0 0.00 0.01 0.00 81 1014.3
20260508081550 39 17 0.0 0.0 0.00 0.01 0.00 82 1014.4
20260508081034 40 17 0.0 0.0 0.00 0.01 0.00 82 1014.4
20260508080515 39 17 0.0 0.0 0.00 0.01 0.00 81 1014.4
20260508080129 39 18 0.0 0.0 0.00 0.01 0.00 81 1014.4
20260508075537 39 18 0.0 0.0 0.00 0.01 0.00 81 1014.3
20260508075027 39 18 0.0 0.0 0.00 0.01 0.00 80 1014.4
20260508074513 39 17 0.0 0.0 0.00 0.01 0.00 80 1014.4
20260508074101 39 18 0.0 0.0 0.00 0.01 0.00 80 1014.4
20260508073547 40 18 0.0 0.0 0.00 0.01 0.00 80 1014.4
20260508073038 40 18 0.0 0.0 0.00 0.01 0.00 79 1014.3
20260508072527 40 17 0.0 0.0 0.00 0.01 0.00 79 1014.3
20260508072009 40 18 0.0 0.0 0.00 0.01 0.00 79 1014.3
20260508071601 40 17 0.0 0.0 0.00 0.01 0.00 79 1014.5
20260508071049 40 18 0.0 0.0 0.00 0.01 0.00 79 1014.5
20260508070541 40 17 0.0 0.0 0.00 0.01 0.00 79 1014.5
20260508070010 40 17 0.0 0.0 0.00 0.01 0.00 78 1014.6
20260508065556 40 17 0.0 0.0 0.00 0.01 0.00 78 1014.6
20260508065045 41 18 0.0 0.0 0.00 0.01 0.00 78 1014.6
20260508064540 41 18 0.0 0.0 0.00 0.01 0.00 78 1014.6
20260508064027 41 18 0.0 0.0 0.00 0.01 0.00 78 1014.7
20260508063516 41 18 0.0 0.0 0.00 0.01 0.00 77 1014.8
20260508063139 41 18 0.0 0.0 0.00 0.01 0.00 77 1014.9
20260508062546 41 18 0.0 0.0 0.00 0.01 0.00 77 1014.9
20260508062041 41 17 0.0 0.0 0.00 0.01 0.00 78 1015.0
20260508061529 41 18 0.0 0.0 0.00 0.01 0.00 78 1015.1
20260508061011 41 18 0.0 0.0 0.00 0.01 0.00 77 1015.2
20260508060502 41 17 0.0 0.0 0.00 0.01 0.00 77 1015.2
20260508060053 41 17 0.0 0.0 0.00 0.01 0.00 77 1015.2
20260508055520 41 17 0.0 0.0 0.00 0.01 0.00 78 1015.1
20260508055009 41 18 0.0 0.0 0.00 0.01 0.00 78 1015.1
20260508054557 41 17 0.0 0.0 0.00 0.01 0.00 79 1015.1
20260508054041 40 18 0.0 0.0 0.00 0.01 0.00 78 1015.1
20260508053532 40 18 0.0 0.0 0.00 0.01 0.00 78 1015.1
20260508053009 40 17 0.0 0.0 0.00 0.01 0.00 79 1015.2
20260508052555 40 17 0.0 0.0 0.00 0.01 0.00 79 1015.2
20260508052050 40 17 0.0 0.0 0.00 0.01 0.00 79 1015.2
20260508051552 40 18 0.0 0.0 0.00 0.01 0.00 79 1015.1
20260508051013 40 17 0.0 0.0 0.00 0.01 0.00 79 1015.1
20260508050507 40 17 0.0 0.0 0.00 0.01 0.00 80 1015.0
20260508050056 40 17 0.0 0.0 0.00 0.01 0.00 79 1015.0
20260508045528 40 17 0.0 0.0 0.00 0.01 0.00 79 1015.0
20260508045007 40 18 0.0 0.0 0.00 0.01 0.00 79 1014.9
20260508044600 41 17 0.0 0.0 0.00 0.01 0.00 80 1015.0
20260508044049 41 17 0.0 0.0 0.00 0.01 0.00 80 1015.0
20260508043541 40 18 0.0 0.0 0.00 0.01 0.00 81 1015.0
20260508043029 40 18 0.0 0.0 0.00 0.01 0.00 81 1015.0
20260508042520 40 17 0.0 0.0 0.00 0.01 0.00 81 1015.0
20260508042006 40 18 0.0 0.0 0.00 0.01 0.00 82 1015.0
20260508041555 40 17 0.0 0.0 0.00 0.01 0.00 82 1015.0
20260508041043 41 18 0.0 0.0 0.00 0.01 0.00 82 1014.9
20260508040533 41 17 0.0 0.0 0.00 0.01 0.00 82 1014.9
20260508040142 41 18 0.0 0.0 0.00 0.01 0.00 82 1014.9
20260508035542 40 17 0.0 0.0 0.00 0.01 0.01 81 1014.8
20260508035037 40 18 0.0 0.0 0.00 0.01 0.01 81 1014.7
20260508034528 40 17 0.0 0.0 0.00 0.01 0.01 82 1014.7
20260508034011 40 17 0.0 0.0 0.00 0.01 0.01 82 1014.8
20260508033503 41 18 0.0 0.0 0.00 0.01 0.01 82 1014.9
20260508033051 41 17 0.0 0.0 0.00 0.01 0.01 82 1015.0
20260508032539 41 17 0.0 0.0 0.00 0.01 0.01 82 1015.0
20260508032017 41 18 0.0 0.0 0.00 0.01 0.01 81 1014.9
20260508031507 41 18 0.0 0.0 0.00 0.01 0.01 81 1015.0
20260508031057 41 17 0.0 0.0 0.00 0.01 0.01 81 1015.0
20260508030541 41 18 0.0 0.0 0.00 0.01 0.01 80 1014.9
20260508030016 41 17 0.0 0.0 0.00 0.01 0.01 80 1014.9
20260508025557 41 18 0.0 0.0 0.00 0.01 0.01 80 1014.9
20260508025046 42 17 0.0 0.0 0.00 0.01 0.01 80 1014.8